Location: Days
(41.3591°N, 106.7339°W)
Time: 20:09:32
(UTC+00:00)

RS-15 - Pass Details

Date: 06 July 2022
Orbit: 1881 x 2163 km, 64.8° (Epoch: 15 August)

Event Time Altitude Azimuth Distance (km) Brightness Sun altitude
Rises 07:30:49 0° 323° (NW) 5,694 11.2 -25.8°
Reaches altitude 10° 07:34:38 10° 316° (NW) 4,676 10.5 -25.7°
Maximum altitude 07:45:23 39° 254° (WSW) 2,899 8.7 -25.5°
Enters shadow 07:49:18 31° 220° (SW) 3,163 8.6 -25.4°
